Terug naar catalogus

STARLINK-35807

ActiefCommunicatieVLEO
NORAD 66358·PAYLOAD·🇺🇸 United States

Gelanceerd Nov 6, 2025 vanaf Vandenberg Space Force Base

Loading…

Volgende Passages (komende 24 uur)

TLE

VersSource: CelesTrak SupGP

Epoch: Sep 15, 2026, 04:13 UTC

1 66358C 25254L   26258.17618056 -.00022130  00000+0 -71166-3 0  2584
2 66358  53.1582  70.9855 0001098  88.0979 340.9886 15.31711980    12

Volg STARLINK-35807 in realtime met AllMySat

Download on the App Store